TimeAKST,TemperatureF,Dew PointF,Humidity,Sea Level PressureIn,VisibilityMPH,Wind Direction,Wind SpeedMPH,Gust SpeedMPH,PrecipitationIn,Events,Conditions,WindDirDegrees,DateUTC
12:53 AM,25.0,23.0,92,30.35,10.0,NE,3.5,-,N/A,,Overcast,50,2013-11-10 09:53:00
1:53 AM,26.1,25.0,96,30.35,10.0,Calm,Calm,-,N/A,,Overcast,0,2013-11-10 10:53:00
3:53 AM,28.0,23.0,81,30.34,10.0,ENE,6.9,-,N/A,,Scattered Clouds,60,2013-11-10 12:53:00
4:53 AM,28.9,23.0,78,30.33,10.0,ENE,6.9,-,N/A,,Overcast,70,2013-11-10 13:53:00
5:53 AM,30.0,23.0,75,30.32,10.0,East,9.2,-,N/A,,Overcast,80,2013-11-10 14:53:00
6:53 AM,30.9,23.0,72,30.32,10.0,ENE,8.1,-,N/A,,Overcast,70,2013-11-10 15:53:00
7:53 AM,30.9,21.9,69,30.32,10.0,East,9.2,-,N/A,,Overcast,80,2013-11-10 16:53:00
8:53 AM,30.9,24.1,76,30.33,10.0,ENE,8.1,-,N/A,,Overcast,70,2013-11-10 17:53:00
9:53 AM,32.0,25.0,75,30.33,10.0,East,11.5,-,N/A,,Overcast,100,2013-11-10 18:53:00
10:53 AM,32.0,25.0,75,30.33,10.0,East,10.4,-,N/A,,Overcast,80,2013-11-10 19:53:00
11:53 AM,33.1,27.0,78,30.31,10.0,East,15.0,-,N/A,,Overcast,80,2013-11-10 20:53:00
12:53 PM,32.0,27.0,82,30.32,10.0,ENE,10.4,-,0.00,Snow,Light Snow,60,2013-11-10 21:53:00
1:53 PM,33.1,28.0,82,30.30,10.0,East,11.5,-,0.00,,Overcast,80,2013-11-10 22:53:00
2:53 PM,33.1,28.0,82,30.30,10.0,East,11.5,-,N/A,,Overcast,80,2013-11-10 23:53:00
3:53 PM,34.0,28.9,82,30.29,10.0,ENE,12.7,-,N/A,,Overcast,70,2013-11-11 00:53:00
4:53 PM,34.0,28.9,82,30.29,10.0,East,11.5,-,N/A,,Overcast,80,2013-11-11 01:53:00
5:53 PM,34.0,28.9,82,30.27,10.0,ENE,10.4,-,N/A,,Overcast,60,2013-11-11 02:53:00
6:53 PM,34.0,30.0,85,30.27,10.0,ENE,11.5,-,N/A,,Overcast,70,2013-11-11 03:53:00
7:53 PM,35.1,30.0,82,30.25,10.0,ENE,12.7,-,N/A,,Overcast,60,2013-11-11 04:53:00
8:53 PM,35.1,30.0,82,30.24,10.0,ENE,11.5,-,N/A,,Overcast,70,2013-11-11 05:53:00
9:53 PM,35.1,30.0,82,30.23,10.0,ENE,12.7,-,N/A,,Overcast,70,2013-11-11 06:53:00
10:53 PM,35.1,30.0,82,30.23,10.0,ENE,10.4,-,N/A,,Overcast,60,2013-11-11 07:53:00
11:53 PM,35.1,30.9,85,30.21,10.0,ENE,9.2,-,N/A,,Overcast,70,2013-11-11 08:53:00